TAM3560 SBGR-SBEG

Flight info

Callsign TAM3560
Flight time 3h 24m
Altitude 36000
Route GERTU UM417 EVRIV DCT PUDKA DCT MATNA DCT IRUMO
Aircraft A320/M-SDE3FGHIRWY/LB1

Departure

Time 2026-04-16 13:35
Airport São Paulo/Guarulhos–Governor André Franco Montoro International Airport (SBGR)

Arrival

Time 2026-04-16 16:59
Airport Eduardo Gomes International Airport (SBEG)
Time Latitude Longitude Altitude Speed Heading
2026-04-16 13:14 -23.42869 -46.48352 2468 ft 0 kts 86°
2026-04-16 13:28 -23.42870 -46.48358 2468 ft 2 kts 86°
2026-04-16 13:28 -23.42871 -46.48374 2468 ft 2 kts 86°
2026-04-16 13:28 -23.42872 -46.48390 2468 ft 2 kts 85°
2026-04-16 13:29 -23.42870 -46.48407 2468 ft 2 kts 115°
2026-04-16 13:29 -23.42862 -46.48420 2468 ft 2 kts 139°
2026-04-16 13:29 -23.42849 -46.48428 2468 ft 2 kts 164°
2026-04-16 13:29 -23.42840 -46.48430 2468 ft 1 kts 179°
2026-04-16 13:30 -23.42834 -46.48430 2468 ft 0 kts 180°
2026-04-16 13:31 -23.42838 -46.48430 2468 ft 1 kts 180°
2026-04-16 13:32 -23.42857 -46.48431 2468 ft 4 kts 188°
2026-04-16 13:32 -23.42893 -46.48441 2468 ft 6 kts 196°
2026-04-16 13:32 -23.42940 -46.48450 2468 ft 7 kts 184°
2026-04-16 13:32 -23.42994 -46.48452 2468 ft 8 kts 179°
2026-04-16 13:33 -23.43053 -46.48445 2468 ft 8 kts 166°
2026-04-16 13:33 -23.43115 -46.48426 2468 ft 9 kts 163°
2026-04-16 13:33 -23.43185 -46.48403 2468 ft 11 kts 163°
2026-04-16 13:33 -23.43264 -46.48379 2468 ft 12 kts 163°
2026-04-16 13:34 -23.43347 -46.48352 2468 ft 12 kts 163°
2026-04-16 13:34 -23.43415 -46.48300 2468 ft 12 kts 100°
2026-04-16 13:34 -23.43390 -46.48188 2468 ft 29 kts 73°
2026-04-16 13:34 -23.43267 -46.47735 2468 ft 93 kts 73°
2026-04-16 13:35 -23.43032 -46.46859 2469 ft 146 kts 73°
2026-04-16 13:35 -23.42700 -46.45648 2581 ft 179 kts 73°
2026-04-16 13:35 -23.42341 -46.44384 3162 ft 176 kts 65°
2026-04-16 13:35 -23.41585 -46.43283 3463 ft 191 kts 41°
2026-04-16 13:36 -23.40499 -46.42357 3755 ft 206 kts 37°
2026-04-16 13:36 -23.39301 -46.41385 3998 ft 226 kts 37°
2026-04-16 13:36 -23.38000 -46.40308 4370 ft 240 kts 40°
2026-04-16 13:36 -23.36757 -46.39090 5043 ft 242 kts 45°
2026-04-16 13:37 -23.35570 -46.37788 5732 ft 244 kts 45°
2026-04-16 13:37 -23.34349 -46.36496 6379 ft 248 kts 36°
2026-04-16 13:37 -23.32760 -46.35827 6984 ft 251 kts
2026-04-16 13:37 -23.31089 -46.36312 7630 ft 255 kts 328°
2026-04-16 13:38 -23.29811 -46.37648 8251 ft 260 kts 306°
2026-04-16 13:38 -23.28761 -46.39228 8831 ft 266 kts 306°
2026-04-16 13:38 -23.27621 -46.40889 9195 ft 282 kts 307°
2026-04-16 13:38 -23.26406 -46.42616 9699 ft 292 kts 307°
2026-04-16 13:39 -23.25160 -46.44364 10350 ft 294 kts 307°
2026-04-16 13:39 -23.23879 -46.46149 10754 ft 307 kts 307°
2026-04-16 13:39 -23.22535 -46.48011 11161 ft 317 kts 307°
2026-04-16 13:39 -23.21161 -46.49903 11750 ft 320 kts 307°
2026-04-16 13:40 -23.19778 -46.51805 12341 ft 322 kts 307°
2026-04-16 13:40 -23.18387 -46.53722 12879 ft 325 kts 307°
2026-04-16 13:40 -23.16977 -46.55660 13392 ft 328 kts 307°
2026-04-16 13:40 -23.15556 -46.57610 13933 ft 330 kts 307°
2026-04-16 13:41 -23.14131 -46.59568 14451 ft 332 kts 307°
2026-04-16 13:41 -23.12693 -46.61543 14940 ft 335 kts 308°
2026-04-16 13:41 -23.11241 -46.63533 15418 ft 338 kts 308°
2026-04-16 13:41 -23.09801 -46.65505 15923 ft 339 kts 308°
2026-04-16 13:42 -23.08335 -46.67514 16410 ft 341 kts 308°
2026-04-16 13:42 -23.06855 -46.69541 16855 ft 344 kts 308°
2026-04-16 13:42 -23.05365 -46.71579 17320 ft 346 kts 308°
2026-04-16 13:42 -23.03865 -46.73632 17759 ft 348 kts 308°
2026-04-16 13:43 -23.02354 -46.75697 18202 ft 350 kts 308°
2026-04-16 13:43 -23.00837 -46.77769 18672 ft 351 kts 308°
2026-04-16 13:43 -22.99313 -46.79850 19126 ft 352 kts 308°
2026-04-16 13:43 -22.97784 -46.81937 19544 ft 354 kts 308°
2026-04-16 13:44 -22.96246 -46.84037 19947 ft 357 kts 308°
2026-04-16 13:44 -22.94720 -46.86118 20356 ft 358 kts 308°
2026-04-16 13:44 -22.93167 -46.88236 20773 ft 360 kts 308°
2026-04-16 13:44 -22.91607 -46.90362 21186 ft 361 kts 307°
2026-04-16 13:45 -22.90044 -46.92493 21602 ft 362 kts 307°
2026-04-16 13:45 -22.88461 -46.94652 21984 ft 364 kts 307°
2026-04-16 13:45 -22.86902 -46.96775 22360 ft 365 kts 307°
2026-04-16 13:45 -22.85318 -46.98931 22773 ft 366 kts 307°
2026-04-16 13:46 -22.83729 -47.01097 23129 ft 368 kts 307°
2026-04-16 13:46 -22.82129 -47.03273 23473 ft 370 kts 307°
2026-04-16 13:46 -22.80518 -47.05466 23820 ft 373 kts 307°
2026-04-16 13:46 -22.78896 -47.07672 24158 ft 375 kts 307°
2026-04-16 13:47 -22.77267 -47.09886 24505 ft 377 kts 307°
2026-04-16 13:47 -22.75628 -47.12112 24842 ft 379 kts 307°
2026-04-16 13:47 -22.73978 -47.14351 25155 ft 381 kts 307°
2026-04-16 13:47 -22.72319 -47.16603 25487 ft 383 kts 307°
2026-04-16 13:48 -22.70652 -47.18865 25806 ft 385 kts 307°
2026-04-16 13:48 -22.68999 -47.21106 26108 ft 387 kts 307°
2026-04-16 13:48 -22.67312 -47.23391 26415 ft 389 kts 307°
2026-04-16 13:48 -22.65617 -47.25687 26730 ft 391 kts 307°
2026-04-16 13:49 -22.63916 -47.27992 27033 ft 393 kts 307°
2026-04-16 13:49 -22.62203 -47.30311 27311 ft 395 kts 307°
2026-04-16 13:49 -22.60482 -47.32642 27597 ft 397 kts 307°
2026-04-16 13:49 -22.58752 -47.34982 27872 ft 399 kts 307°
2026-04-16 13:50 -22.57005 -47.37343 28179 ft 400 kts 306°
2026-04-16 13:50 -22.55264 -47.39699 28474 ft 402 kts 307°
2026-04-16 13:50 -22.53538 -47.42031 28765 ft 403 kts 307°
2026-04-16 13:50 -22.51784 -47.44401 29031 ft 405 kts 307°
2026-04-16 13:51 -22.50018 -47.46784 29275 ft 407 kts 307°
2026-04-16 13:51 -22.48245 -47.49177 29533 ft 409 kts 307°
2026-04-16 13:51 -22.46456 -47.51576 29789 ft 410 kts 308°
2026-04-16 13:51 -22.44548 -47.53891 30046 ft 413 kts 311°
2026-04-16 13:52 -22.42494 -47.56072 30302 ft 415 kts 315°
2026-04-16 13:52 -22.40291 -47.58113 30543 ft 418 kts 318°
2026-04-16 13:52 -22.37949 -47.60004 30769 ft 421 kts 322°
2026-04-16 13:52 -22.35569 -47.61795 30995 ft 422 kts 322°
2026-04-16 13:53 -22.33145 -47.63605 31214 ft 424 kts 322°
2026-04-16 13:53 -22.30703 -47.65430 31421 ft 426 kts 322°
2026-04-16 13:53 -22.28246 -47.67265 31638 ft 428 kts 322°
2026-04-16 13:53 -22.25790 -47.69098 31843 ft 430 kts 322°
2026-04-16 13:54 -22.23354 -47.70916 32038 ft 431 kts 322°
2026-04-16 13:54 -22.20879 -47.72764 32258 ft 433 kts 322°
2026-04-16 13:54 -22.18398 -47.74616 32469 ft 434 kts 322°
2026-04-16 13:54 -22.15903 -47.76479 32652 ft 436 kts 322°
2026-04-16 13:55 -22.13399 -47.78346 32880 ft 437 kts 322°
2026-04-16 13:55 -22.10891 -47.80215 33114 ft 438 kts 322°
2026-04-16 13:55 -22.08379 -47.82087 33355 ft 439 kts 322°
2026-04-16 13:55 -22.05862 -47.83965 33549 ft 440 kts 322°
2026-04-16 13:56 -22.03336 -47.85847 33758 ft 441 kts 322°
2026-04-16 13:56 -22.00805 -47.87729 34005 ft 441 kts 322°
2026-04-16 13:56 -21.98275 -47.89613 34290 ft 440 kts 322°
2026-04-16 13:56 -21.95787 -47.91464 34523 ft 440 kts 322°
2026-04-16 13:57 -21.93262 -47.93342 34699 ft 441 kts 322°
2026-04-16 13:57 -21.90734 -47.95223 34864 ft 442 kts 322°
2026-04-16 13:57 -21.88180 -47.97121 35016 ft 443 kts 322°
2026-04-16 13:58 -21.83081 -48.00909 35327 ft 445 kts 322°
2026-04-16 13:58 -21.80528 -48.02803 35480 ft 445 kts 322°
2026-04-16 13:58 -21.77978 -48.04700 35617 ft 446 kts 321°
2026-04-16 13:58 -21.75443 -48.06622 35775 ft 445 kts 321°
2026-04-16 13:59 -21.72914 -48.08554 35892 ft 446 kts 321°
2026-04-16 13:59 -21.70417 -48.10464 35992 ft 447 kts 321°
2026-04-16 13:59 -21.65319 -48.14358 36039 ft 451 kts 321°
2026-04-16 14:00 -21.60183 -48.18273 36046 ft 452 kts 321°
2026-04-16 14:00 -21.55035 -48.22193 36048 ft 453 kts 321°
2026-04-16 14:01 -21.49886 -48.26109 36042 ft 453 kts 321°
2026-04-16 14:01 -21.44734 -48.30024 36043 ft 453 kts 321°
2026-04-16 14:02 -21.39576 -48.33942 36036 ft 454 kts 321°
2026-04-16 14:02 -21.34417 -48.37855 36037 ft 454 kts 321°
2026-04-16 14:03 -21.29293 -48.41740 36032 ft 454 kts 321°
2026-04-16 14:03 -21.24122 -48.45657 36033 ft 455 kts 321°
2026-04-16 14:04 -21.18946 -48.49572 36031 ft 455 kts 321°
2026-04-16 14:04 -21.13771 -48.53485 36031 ft 454 kts 321°
2026-04-16 14:05 -21.08591 -48.57399 36026 ft 455 kts 321°
2026-04-16 14:05 -21.03414 -48.61306 36024 ft 455 kts 321°
2026-04-16 14:06 -20.98226 -48.65221 36021 ft 456 kts 322°
2026-04-16 14:06 -20.93069 -48.69108 36020 ft 456 kts 322°
2026-04-16 14:07 -20.87868 -48.73026 36019 ft 456 kts 322°
2026-04-16 14:07 -20.82668 -48.76939 36019 ft 457 kts 322°
2026-04-16 14:08 -20.77467 -48.80852 36018 ft 456 kts 322°
2026-04-16 14:08 -20.72269 -48.84753 36017 ft 456 kts 322°
2026-04-16 14:09 -20.67105 -48.88615 36015 ft 456 kts 322°
2026-04-16 14:09 -20.61907 -48.92506 36013 ft 456 kts 322°
2026-04-16 14:10 -20.56707 -48.96399 36014 ft 456 kts 322°
2026-04-16 14:10 -20.51501 -49.00293 36009 ft 457 kts 322°
2026-04-16 14:11 -20.46286 -49.04191 36004 ft 457 kts 322°
2026-04-16 14:11 -20.41073 -49.08086 35999 ft 457 kts 322°
2026-04-16 14:12 -20.35857 -49.11978 35997 ft 457 kts 322°
2026-04-16 14:12 -20.30682 -49.15836 35998 ft 456 kts 322°
2026-04-16 14:13 -20.25473 -49.19717 35998 ft 456 kts 322°
2026-04-16 14:13 -20.20258 -49.23599 35996 ft 457 kts 322°
2026-04-16 14:14 -20.15044 -49.27479 35992 ft 457 kts 322°
2026-04-16 14:14 -20.09818 -49.31361 35992 ft 457 kts 322°
2026-04-16 14:15 -20.04622 -49.35220 35990 ft 457 kts 322°
2026-04-16 14:15 -19.99390 -49.39102 35989 ft 457 kts 322°
2026-04-16 14:16 -19.94169 -49.42972 35990 ft 457 kts 322°
2026-04-16 14:16 -19.88976 -49.46818 35994 ft 457 kts 322°
2026-04-16 14:17 -19.83749 -49.50688 35997 ft 458 kts 322°
2026-04-16 14:17 -19.78515 -49.54557 35995 ft 458 kts 322°
2026-04-16 14:18 -19.73284 -49.58423 35995 ft 457 kts 322°
2026-04-16 14:18 -19.68051 -49.62289 36000 ft 458 kts 322°
2026-04-16 14:19 -19.62818 -49.66150 36002 ft 458 kts 323°
2026-04-16 14:19 -19.57583 -49.70009 36003 ft 458 kts 323°
2026-04-16 14:20 -19.52343 -49.73870 36007 ft 458 kts 323°
2026-04-16 14:20 -19.47102 -49.77729 36009 ft 458 kts 323°
2026-04-16 14:21 -19.41897 -49.81560 36013 ft 459 kts 323°
2026-04-16 14:21 -19.36640 -49.85428 36019 ft 459 kts 323°
2026-04-16 14:22 -19.31343 -49.89260 36020 ft 460 kts 324°
2026-04-16 14:22 -19.26038 -49.92999 36020 ft 459 kts 324°
2026-04-16 14:23 -19.20711 -49.96760 36020 ft 459 kts 324°
2026-04-16 14:23 -19.15394 -50.00516 36018 ft 459 kts 324°
2026-04-16 14:24 -19.10068 -50.04281 36015 ft 460 kts 324°
2026-04-16 14:24 -19.04742 -50.08043 36011 ft 460 kts 324°
2026-04-16 14:25 -18.99404 -50.11811 36009 ft 461 kts 324°
2026-04-16 14:25 -18.94097 -50.15555 36010 ft 461 kts 324°
2026-04-16 14:26 -18.88725 -50.19342 36004 ft 461 kts 324°
2026-04-16 14:26 -18.83385 -50.23103 36004 ft 461 kts 324°
2026-04-16 14:27 -18.78045 -50.26863 36004 ft 461 kts 324°
2026-04-16 14:27 -18.72744 -50.30591 36001 ft 461 kts 324°
2026-04-16 14:28 -18.67395 -50.34349 36002 ft 461 kts 324°
2026-04-16 14:28 -18.62042 -50.38108 36002 ft 462 kts 323°
2026-04-16 14:29 -18.56685 -50.41868 36001 ft 462 kts 323°
2026-04-16 14:29 -18.51323 -50.45628 36005 ft 462 kts 323°
2026-04-16 14:30 -18.45963 -50.49382 36006 ft 462 kts 323°
2026-04-16 14:30 -18.40599 -50.53139 36014 ft 462 kts 323°
2026-04-16 14:31 -18.35269 -50.56866 36020 ft 462 kts 323°
2026-04-16 14:31 -18.29896 -50.60624 36029 ft 462 kts 323°
2026-04-16 14:32 -18.24526 -50.64375 36040 ft 463 kts 323°
2026-04-16 14:32 -18.19169 -50.68113 36042 ft 464 kts 324°
2026-04-16 14:33 -18.13785 -50.71868 36046 ft 464 kts 324°
2026-04-16 14:33 -18.08391 -50.75627 36044 ft 464 kts 324°
2026-04-16 14:34 -18.03001 -50.79381 36043 ft 464 kts 324°
2026-04-16 14:34 -17.97613 -50.83130 36039 ft 464 kts 324°
2026-04-16 14:35 -17.92227 -50.86875 36045 ft 464 kts 323°
2026-04-16 14:35 -17.86838 -50.90619 36043 ft 464 kts 323°
2026-04-16 14:36 -17.81484 -50.94339 36049 ft 464 kts 324°
2026-04-16 14:36 -17.76084 -50.98085 36051 ft 465 kts 323°
2026-04-16 14:37 -17.70674 -51.01834 36054 ft 466 kts 323°
2026-04-16 14:37 -17.65254 -51.05589 36055 ft 466 kts 323°
2026-04-16 14:38 -17.59843 -51.09335 36056 ft 465 kts 323°
2026-04-16 14:38 -17.54441 -51.13073 36057 ft 464 kts 323°
2026-04-16 14:39 -17.49026 -51.16819 36058 ft 468 kts 323°
2026-04-16 14:39 -17.43565 -51.20590 36057 ft 470 kts 323°
2026-04-16 14:40 -17.38136 -51.24337 36055 ft 470 kts 323°
2026-04-16 14:40 -17.32666 -51.28109 36053 ft 470 kts 323°
2026-04-16 14:41 -17.27195 -51.31880 36055 ft 470 kts 323°
2026-04-16 14:41 -17.21725 -51.35648 36057 ft 470 kts 323°
2026-04-16 14:42 -17.16258 -51.39411 36053 ft 469 kts 323°
2026-04-16 14:42 -17.10795 -51.43168 36045 ft 469 kts 323°
2026-04-16 14:43 -17.05336 -51.46921 36036 ft 469 kts 323°
2026-04-16 14:43 -16.99879 -51.50669 36024 ft 469 kts 323°
2026-04-16 14:44 -16.94455 -51.54390 36018 ft 469 kts 323°
2026-04-16 14:44 -16.88998 -51.58133 36020 ft 469 kts 323°
2026-04-16 14:45 -16.83537 -51.61879 36017 ft 469 kts 323°
2026-04-16 14:45 -16.78072 -51.65621 36014 ft 469 kts 323°
2026-04-16 14:46 -16.72608 -51.69362 36008 ft 469 kts 324°
2026-04-16 14:46 -16.67143 -51.73099 36006 ft 469 kts 324°
2026-04-16 14:47 -16.61679 -51.76834 35997 ft 469 kts 324°
2026-04-16 14:47 -16.56254 -51.80539 35993 ft 469 kts 324°
2026-04-16 14:48 -16.50787 -51.84269 35992 ft 469 kts 324°
2026-04-16 14:48 -16.45324 -51.87994 35988 ft 469 kts 324°
2026-04-16 14:49 -16.39855 -51.91722 35983 ft 469 kts 324°
2026-04-16 14:49 -16.34381 -51.95452 35979 ft 469 kts 324°
2026-04-16 14:50 -16.28907 -51.99178 35975 ft 469 kts 324°
2026-04-16 14:50 -16.23431 -52.02905 35968 ft 470 kts 324°
2026-04-16 14:51 -16.17951 -52.06628 35969 ft 469 kts 324°
2026-04-16 14:51 -16.12508 -52.10326 35964 ft 470 kts 324°
2026-04-16 14:53 -15.90564 -52.25205 35956 ft 469 kts 324°
2026-04-16 14:54 -15.85082 -52.28918 35962 ft 469 kts 324°
2026-04-16 14:54 -15.79606 -52.32623 35968 ft 469 kts 324°
2026-04-16 14:55 -15.74126 -52.36329 35974 ft 469 kts 324°
2026-04-16 14:55 -15.68684 -52.40006 35975 ft 469 kts 324°
2026-04-16 14:56 -15.63205 -52.43705 35976 ft 468 kts 324°
2026-04-16 14:56 -15.57732 -52.47398 35976 ft 469 kts 324°
2026-04-16 14:57 -15.52252 -52.51093 35978 ft 469 kts 324°
2026-04-16 14:57 -15.46769 -52.54789 35978 ft 469 kts 324°
2026-04-16 14:58 -15.38547 -52.60327 35974 ft 469 kts 324°
2026-04-16 14:59 -15.33064 -52.64018 35973 ft 469 kts 324°
2026-04-16 14:59 -15.27612 -52.67682 35972 ft 469 kts 324°
2026-04-16 15:00 -15.22121 -52.71374 35970 ft 470 kts 324°
2026-04-16 15:00 -15.16624 -52.75066 35968 ft 470 kts 325°
2026-04-16 15:01 -15.11123 -52.78756 35967 ft 471 kts 324°
2026-04-16 15:01 -15.05616 -52.82451 35971 ft 471 kts 325°
2026-04-16 15:02 -15.00104 -52.86146 35969 ft 471 kts 325°
2026-04-16 15:02 -14.94598 -52.89836 35974 ft 470 kts 325°
2026-04-16 15:03 -14.89097 -52.93517 35976 ft 470 kts 325°
2026-04-16 15:03 -14.83629 -52.97177 35980 ft 471 kts 325°
2026-04-16 15:04 -14.78113 -53.00866 35984 ft 471 kts 325°
2026-04-16 15:04 -14.72604 -53.04547 35986 ft 471 kts 325°
2026-04-16 15:05 -14.67093 -53.08228 35987 ft 470 kts 325°
2026-04-16 15:05 -14.61586 -53.11902 35991 ft 470 kts 325°
2026-04-16 15:06 -14.56083 -53.15575 35992 ft 470 kts 325°
2026-04-16 15:06 -14.50577 -53.19245 35993 ft 470 kts 325°
2026-04-16 15:07 -14.45107 -53.22891 35987 ft 470 kts 325°
2026-04-16 15:07 -14.39605 -53.26555 35987 ft 470 kts 325°
2026-04-16 15:08 -14.34106 -53.30215 35980 ft 470 kts 325°
2026-04-16 15:08 -14.28605 -53.33874 35983 ft 469 kts 325°
2026-04-16 15:09 -14.23105 -53.37529 35981 ft 469 kts 325°
2026-04-16 15:09 -14.17606 -53.41185 35971 ft 469 kts 326°
2026-04-16 15:10 -14.12108 -53.44836 35961 ft 469 kts 325°
2026-04-16 15:10 -14.06650 -53.48460 35947 ft 469 kts 326°
2026-04-16 15:11 -14.01152 -53.52109 35940 ft 469 kts 325°
2026-04-16 15:11 -13.95652 -53.55758 35942 ft 470 kts 326°
2026-04-16 15:12 -13.90146 -53.59402 35940 ft 470 kts 326°
2026-04-16 15:12 -13.84633 -53.63036 35941 ft 470 kts 326°
2026-04-16 15:13 -13.79122 -53.66672 35942 ft 469 kts 326°
2026-04-16 15:13 -13.73618 -53.70306 35942 ft 469 kts 326°
2026-04-16 15:14 -13.68115 -53.73937 35942 ft 469 kts 326°
2026-04-16 15:14 -13.62652 -53.77541 35939 ft 469 kts 326°
2026-04-16 15:15 -13.57149 -53.81169 35936 ft 469 kts 326°
2026-04-16 15:15 -13.51639 -53.84798 35932 ft 469 kts 326°
2026-04-16 15:16 -13.46136 -53.88425 35931 ft 469 kts 326°
2026-04-16 15:16 -13.40632 -53.92047 35930 ft 468 kts 326°
2026-04-16 15:17 -13.35134 -53.95663 35927 ft 468 kts 326°
2026-04-16 15:17 -13.29635 -53.99279 35926 ft 468 kts 326°
2026-04-16 15:18 -13.24136 -54.02892 35923 ft 469 kts 326°
2026-04-16 15:18 -13.18633 -54.06506 35920 ft 469 kts 326°
2026-04-16 15:19 -13.13168 -54.10094 35919 ft 469 kts 326°
2026-04-16 15:19 -13.07670 -54.13701 35918 ft 468 kts 326°
2026-04-16 15:20 -13.02174 -54.17304 35912 ft 468 kts 326°
2026-04-16 15:20 -12.96678 -54.20907 35899 ft 468 kts 326°
2026-04-16 15:21 -12.91183 -54.24506 35895 ft 468 kts 326°
2026-04-16 15:21 -12.85676 -54.28112 35895 ft 469 kts 326°
2026-04-16 15:22 -12.80171 -54.31713 35897 ft 468 kts 326°
2026-04-16 15:22 -12.74703 -54.35289 35899 ft 469 kts 326°
2026-04-16 15:23 -12.69195 -54.38890 35900 ft 468 kts 326°
2026-04-16 15:23 -12.63689 -54.42488 35898 ft 468 kts 326°
2026-04-16 15:24 -12.58184 -54.46081 35900 ft 469 kts 326°
2026-04-16 15:24 -12.52672 -54.49678 35899 ft 469 kts 326°
2026-04-16 15:25 -12.47155 -54.53277 35898 ft 469 kts 326°
2026-04-16 15:25 -12.41636 -54.56875 35898 ft 469 kts 326°
2026-04-16 15:26 -12.36119 -54.60471 35901 ft 469 kts 326°
2026-04-16 15:26 -12.30600 -54.64065 35906 ft 469 kts 326°
2026-04-16 15:27 -12.25121 -54.67632 35914 ft 469 kts 326°
2026-04-16 15:27 -12.19604 -54.71220 35924 ft 469 kts 326°
2026-04-16 15:28 -12.14087 -54.74808 35933 ft 469 kts 326°
2026-04-16 15:28 -12.08563 -54.78399 35939 ft 470 kts 326°
2026-04-16 15:29 -12.03035 -54.81990 35942 ft 470 kts 326°
2026-04-16 15:29 -11.97505 -54.85581 35941 ft 470 kts 326°
2026-04-16 15:30 -11.91981 -54.89167 35937 ft 469 kts 326°
2026-04-16 15:30 -11.86499 -54.92723 35933 ft 469 kts 326°
2026-04-16 15:31 -11.80981 -54.96301 35926 ft 469 kts 326°
2026-04-16 15:31 -11.75463 -54.99877 35917 ft 468 kts 326°
2026-04-16 15:32 -11.69947 -55.03450 35912 ft 469 kts 326°
2026-04-16 15:32 -11.64421 -55.07027 35916 ft 470 kts 326°
2026-04-16 15:33 -11.58893 -55.10605 35911 ft 470 kts 326°
2026-04-16 15:33 -11.53367 -55.14180 35912 ft 469 kts 326°
2026-04-16 15:34 -11.47841 -55.17752 35916 ft 469 kts 326°
2026-04-16 15:34 -11.42352 -55.21300 35918 ft 470 kts 326°
2026-04-16 15:35 -11.36821 -55.24872 35918 ft 470 kts 327°
2026-04-16 15:35 -11.31285 -55.28446 35913 ft 470 kts 326°
2026-04-16 15:36 -11.25749 -55.32018 35906 ft 470 kts 327°
2026-04-16 15:36 -11.20206 -55.35594 35901 ft 471 kts 327°
2026-04-16 15:37 -11.14664 -55.39167 35902 ft 470 kts 327°
2026-04-16 15:37 -11.09122 -55.42739 35901 ft 471 kts 327°
2026-04-16 15:38 -11.03580 -55.46308 35898 ft 471 kts 326°
2026-04-16 15:38 -10.98072 -55.49855 35898 ft 470 kts 326°
2026-04-16 15:39 -10.92527 -55.53424 35897 ft 471 kts 327°
2026-04-16 15:39 -10.86973 -55.56997 35900 ft 472 kts 327°
2026-04-16 15:40 -10.81414 -55.60571 35903 ft 472 kts 327°
2026-04-16 15:40 -10.75854 -55.64144 35908 ft 472 kts 327°
2026-04-16 15:41 -10.70291 -55.67719 35914 ft 472 kts 327°
2026-04-16 15:41 -10.64762 -55.71270 35918 ft 472 kts 327°
2026-04-16 15:42 -10.59201 -55.74839 35916 ft 472 kts 327°
2026-04-16 15:42 -10.53639 -55.78407 35912 ft 472 kts 327°
2026-04-16 15:43 -10.48074 -55.81977 35906 ft 472 kts 327°
2026-04-16 15:43 -10.42511 -55.85544 35902 ft 472 kts 327°
2026-04-16 15:44 -10.36946 -55.89109 35899 ft 472 kts 327°
2026-04-16 15:44 -10.31384 -55.92672 35899 ft 472 kts 327°
2026-04-16 15:45 -10.25824 -55.96230 35894 ft 471 kts 327°
2026-04-16 15:45 -10.20300 -55.99764 35888 ft 471 kts 327°
2026-04-16 15:46 -10.14740 -56.03324 35889 ft 472 kts 327°
2026-04-16 15:46 -10.09182 -56.06880 35890 ft 471 kts 327°
2026-04-16 15:47 -10.03620 -56.10434 35893 ft 472 kts 327°
2026-04-16 15:47 -9.98052 -56.13992 35897 ft 471 kts 327°
2026-04-16 15:48 -9.92495 -56.17541 35896 ft 471 kts 327°
2026-04-16 15:48 -9.86979 -56.21064 35895 ft 471 kts 327°
2026-04-16 15:49 -9.81414 -56.24619 35889 ft 472 kts 327°
2026-04-16 15:49 -9.75842 -56.28177 35882 ft 473 kts 327°
2026-04-16 15:50 -9.70267 -56.31751 35877 ft 473 kts 327°
2026-04-16 15:50 -9.64740 -56.35391 35871 ft 472 kts 326°
2026-04-16 15:51 -9.59224 -56.39035 35865 ft 472 kts 326°
2026-04-16 15:51 -9.53705 -56.42675 35862 ft 472 kts 326°
2026-04-16 15:52 -9.48177 -56.46318 35860 ft 473 kts 326°
2026-04-16 15:52 -9.42686 -56.49934 35861 ft 473 kts 326°
2026-04-16 15:53 -9.37154 -56.53577 35860 ft 474 kts 326°
2026-04-16 15:53 -9.31607 -56.57229 35862 ft 475 kts 326°
2026-04-16 15:54 -9.26055 -56.60881 35861 ft 475 kts 326°
2026-04-16 15:54 -9.20504 -56.64532 35861 ft 475 kts 326°
2026-04-16 15:55 -9.14953 -56.68182 35860 ft 475 kts 327°
2026-04-16 15:55 -9.09399 -56.71831 35857 ft 475 kts 326°
2026-04-16 15:56 -9.03842 -56.75481 35856 ft 475 kts 326°
2026-04-16 15:56 -8.98330 -56.79101 35854 ft 475 kts 326°
2026-04-16 15:57 -8.92770 -56.82750 35854 ft 476 kts 326°
2026-04-16 15:57 -8.87203 -56.86403 35857 ft 476 kts 326°
2026-04-16 15:58 -8.81635 -56.90056 35853 ft 476 kts 326°
2026-04-16 15:58 -8.76063 -56.93710 35851 ft 476 kts 326°
2026-04-16 15:59 -8.67703 -56.99189 35855 ft 476 kts 326°
2026-04-16 15:59 -8.62130 -57.02839 35858 ft 476 kts 326°
2026-04-16 16:00 -8.56558 -57.06488 35863 ft 476 kts 326°
2026-04-16 16:00 -8.51030 -57.10106 35870 ft 476 kts 326°
2026-04-16 16:01 -8.45460 -57.13752 35877 ft 476 kts 326°
2026-04-16 16:01 -8.39882 -57.17400 35882 ft 476 kts 326°
2026-04-16 16:02 -8.34307 -57.21046 35885 ft 477 kts 326°
2026-04-16 16:02 -8.28724 -57.24696 35892 ft 477 kts 326°
2026-04-16 16:03 -8.23146 -57.28342 35890 ft 476 kts 326°
2026-04-16 16:03 -8.17566 -57.31987 35883 ft 477 kts 326°
2026-04-16 16:04 -8.12026 -57.35606 35872 ft 477 kts 326°
2026-04-16 16:04 -8.06438 -57.39254 35863 ft 477 kts 326°
2026-04-16 16:05 -8.00847 -57.42902 35859 ft 478 kts 326°
2026-04-16 16:05 -7.95254 -57.46550 35850 ft 478 kts 326°
2026-04-16 16:06 -7.89656 -57.50201 35847 ft 478 kts 326°
2026-04-16 16:06 -7.84063 -57.53849 35840 ft 477 kts 326°
2026-04-16 16:07 -7.78473 -57.57492 35842 ft 477 kts 326°
2026-04-16 16:07 -7.72881 -57.61136 35844 ft 477 kts 326°
2026-04-16 16:08 -7.67330 -57.64752 35842 ft 478 kts 326°
2026-04-16 16:08 -7.61732 -57.68397 35843 ft 478 kts 326°
2026-04-16 16:09 -7.56136 -57.72039 35846 ft 478 kts 326°
2026-04-16 16:09 -7.50538 -57.75682 35850 ft 478 kts 326°
2026-04-16 16:10 -7.44937 -57.79325 35851 ft 478 kts 326°
2026-04-16 16:10 -7.39338 -57.82967 35854 ft 478 kts 326°
2026-04-16 16:11 -7.33736 -57.86610 35850 ft 478 kts 326°
2026-04-16 16:11 -7.28128 -57.90255 35847 ft 478 kts 326°
2026-04-16 16:12 -7.22558 -57.93872 35849 ft 479 kts 326°
2026-04-16 16:12 -7.16945 -57.97517 35847 ft 480 kts 326°
2026-04-16 16:13 -7.11323 -58.01166 35846 ft 480 kts 326°
2026-04-16 16:13 -7.05699 -58.04818 35846 ft 480 kts 326°
2026-04-16 16:14 -7.00080 -58.08465 35847 ft 479 kts 326°
2026-04-16 16:14 -6.94465 -58.12108 35848 ft 479 kts 326°
2026-04-16 16:15 -6.88853 -58.15749 35850 ft 478 kts 326°
2026-04-16 16:15 -6.83246 -58.19384 35851 ft 478 kts 326°
2026-04-16 16:16 -6.77642 -58.23016 35849 ft 478 kts 326°
2026-04-16 16:16 -6.72074 -58.26625 35846 ft 478 kts 326°
2026-04-16 16:17 -6.66468 -58.30256 35844 ft 478 kts 326°
2026-04-16 16:17 -6.60867 -58.33885 35846 ft 478 kts 326°
2026-04-16 16:18 -6.55265 -58.37515 35847 ft 477 kts 326°
2026-04-16 16:18 -6.49669 -58.41138 35850 ft 477 kts 326°
2026-04-16 16:19 -6.44078 -58.44756 35855 ft 477 kts 326°
2026-04-16 16:19 -6.38485 -58.48374 35860 ft 477 kts 326°
2026-04-16 16:20 -6.32895 -58.51990 35859 ft 477 kts 326°
2026-04-16 16:20 -6.27342 -58.55581 35856 ft 477 kts 326°
2026-04-16 16:21 -6.21755 -58.59194 35845 ft 476 kts 326°
2026-04-16 16:21 -6.16169 -58.62804 35837 ft 475 kts 326°
2026-04-16 16:22 -6.10598 -58.66402 35833 ft 474 kts 326°
2026-04-16 16:22 -6.05050 -58.69986 35830 ft 473 kts 326°
2026-04-16 16:23 -5.99512 -58.73564 35829 ft 472 kts 327°
2026-04-16 16:23 -5.94027 -58.77106 35533 ft 468 kts 327°
2026-04-16 16:24 -5.91287 -58.78876 35240 ft 467 kts 327°
2026-04-16 16:24 -5.88543 -58.80647 34947 ft 468 kts 327°
2026-04-16 16:24 -5.85791 -58.82424 34652 ft 470 kts 327°
2026-04-16 16:24 -5.83034 -58.84203 34361 ft 471 kts 327°
2026-04-16 16:25 -5.80267 -58.85988 34068 ft 473 kts 327°
2026-04-16 16:25 -5.77487 -58.87781 33775 ft 474 kts 327°
2026-04-16 16:25 -5.74702 -58.89578 33487 ft 475 kts 327°
2026-04-16 16:25 -5.71908 -58.91380 33197 ft 477 kts 327°
2026-04-16 16:26 -5.69106 -58.93188 32906 ft 478 kts 327°
2026-04-16 16:26 -5.66301 -58.94997 32617 ft 478 kts 327°
2026-04-16 16:26 -5.63502 -58.96802 32352 ft 476 kts 327°
2026-04-16 16:26 -5.60713 -58.98601 32093 ft 475 kts 327°
2026-04-16 16:27 -5.57967 -59.00372 31842 ft 473 kts 327°
2026-04-16 16:27 -5.55200 -59.02156 31587 ft 471 kts 327°
2026-04-16 16:27 -5.52443 -59.03933 31332 ft 469 kts 328°
2026-04-16 16:27 -5.49699 -59.05701 31078 ft 466 kts 328°
2026-04-16 16:28 -5.46971 -59.07458 30824 ft 464 kts 328°
2026-04-16 16:28 -5.44254 -59.09209 30570 ft 462 kts 328°
2026-04-16 16:28 -5.41549 -59.10952 30317 ft 460 kts 328°
2026-04-16 16:28 -5.38855 -59.12687 30064 ft 458 kts 328°
2026-04-16 16:29 -5.36171 -59.14416 29810 ft 456 kts 328°
2026-04-16 16:29 -5.33499 -59.16136 29557 ft 454 kts 328°
2026-04-16 16:29 -5.30841 -59.17849 29304 ft 452 kts 328°
2026-04-16 16:29 -5.28192 -59.19555 29050 ft 450 kts 328°
2026-04-16 16:30 -5.25553 -59.21254 28797 ft 449 kts 328°
2026-04-16 16:30 -5.22927 -59.22943 28545 ft 446 kts 328°
2026-04-16 16:30 -5.20313 -59.24625 28300 ft 444 kts 328°
2026-04-16 16:30 -5.17711 -59.26301 28055 ft 443 kts 328°
2026-04-16 16:31 -5.15115 -59.27971 27812 ft 441 kts 328°
2026-04-16 16:31 -5.12567 -59.29611 27572 ft 440 kts 328°
2026-04-16 16:31 -5.09990 -59.31269 27328 ft 438 kts 328°
2026-04-16 16:31 -5.07423 -59.32920 27085 ft 436 kts 328°
2026-04-16 16:32 -5.04868 -59.34564 26842 ft 434 kts 328°
2026-04-16 16:32 -5.02321 -59.36203 26599 ft 433 kts 327°
2026-04-16 16:32 -4.99781 -59.37838 26354 ft 432 kts 328°
2026-04-16 16:32 -4.97247 -59.39468 26109 ft 431 kts 328°
2026-04-16 16:33 -4.94723 -59.41092 25863 ft 429 kts 328°
2026-04-16 16:33 -4.92205 -59.42711 25616 ft 428 kts 328°
2026-04-16 16:33 -4.89695 -59.44325 25372 ft 427 kts 328°
2026-04-16 16:33 -4.87192 -59.45934 25129 ft 426 kts 327°
2026-04-16 16:34 -4.84698 -59.47537 24886 ft 424 kts 327°
2026-04-16 16:34 -4.82211 -59.49136 24642 ft 423 kts 327°
2026-04-16 16:34 -4.79733 -59.50729 24400 ft 421 kts 327°
2026-04-16 16:34 -4.77264 -59.52316 24156 ft 419 kts 327°
2026-04-16 16:35 -4.74805 -59.53896 23913 ft 418 kts 327°
2026-04-16 16:35 -4.72390 -59.55449 23674 ft 417 kts 327°
2026-04-16 16:35 -4.69948 -59.57019 23432 ft 416 kts 327°
2026-04-16 16:35 -4.67509 -59.58586 23189 ft 415 kts 327°
2026-04-16 16:36 -4.65077 -59.60148 22949 ft 413 kts 327°
2026-04-16 16:36 -4.62655 -59.61704 22708 ft 412 kts 327°
2026-04-16 16:36 -4.60240 -59.63256 22467 ft 410 kts 327°
2026-04-16 16:36 -4.57835 -59.64800 22228 ft 409 kts 327°
2026-04-16 16:37 -4.55433 -59.66343 21996 ft 408 kts 327°
2026-04-16 16:37 -4.53038 -59.67881 21769 ft 407 kts 327°
2026-04-16 16:37 -4.50654 -59.69413 21539 ft 405 kts 327°
2026-04-16 16:37 -4.48276 -59.70941 21307 ft 404 kts 327°
2026-04-16 16:38 -4.45906 -59.72463 21077 ft 402 kts 328°
2026-04-16 16:38 -4.43545 -59.73979 20846 ft 401 kts 327°
2026-04-16 16:38 -4.41196 -59.75488 20616 ft 399 kts 328°
2026-04-16 16:38 -4.38852 -59.76993 20382 ft 399 kts 328°
2026-04-16 16:39 -4.36515 -59.78493 20155 ft 397 kts 328°
2026-04-16 16:39 -4.34223 -59.79965 19929 ft 395 kts 328°
2026-04-16 16:39 -4.31905 -59.81453 19698 ft 394 kts 328°
2026-04-16 16:39 -4.29597 -59.82934 19468 ft 392 kts 328°
2026-04-16 16:40 -4.27298 -59.84410 19237 ft 391 kts 328°
2026-04-16 16:40 -4.25006 -59.85881 19004 ft 389 kts 328°
2026-04-16 16:40 -4.22723 -59.87347 18774 ft 388 kts 328°
2026-04-16 16:40 -4.20449 -59.88807 18543 ft 386 kts 328°
2026-04-16 16:41 -4.18184 -59.90261 18263 ft 385 kts 328°
2026-04-16 16:41 -4.15931 -59.91707 17918 ft 382 kts 328°
2026-04-16 16:41 -4.13692 -59.93144 17567 ft 380 kts 328°
2026-04-16 16:41 -4.11433 -59.94518 17220 ft 378 kts 333°
2026-04-16 16:42 -4.09067 -59.95655 16873 ft 374 kts 339°
2026-04-16 16:42 -4.06617 -59.96536 16526 ft 371 kts 344°
2026-04-16 16:42 -4.04143 -59.97288 16174 ft 369 kts 345°
2026-04-16 16:42 -4.01680 -59.98014 15825 ft 366 kts 345°
2026-04-16 16:43 -3.99235 -59.98735 15475 ft 364 kts 345°
2026-04-16 16:43 -3.96809 -59.99455 15121 ft 361 kts 345°
2026-04-16 16:43 -3.94435 -60.00162 14773 ft 358 kts 345°
2026-04-16 16:43 -3.92045 -60.00875 14415 ft 356 kts 345°
2026-04-16 16:44 -3.89671 -60.01585 14057 ft 353 kts 345°
2026-04-16 16:44 -3.87312 -60.02292 13701 ft 351 kts 345°
2026-04-16 16:44 -3.84968 -60.02993 13346 ft 349 kts 345°
2026-04-16 16:44 -3.82638 -60.03692 12993 ft 347 kts 345°
2026-04-16 16:45 -3.80320 -60.04385 12638 ft 345 kts 345°
2026-04-16 16:45 -3.78015 -60.05076 12284 ft 343 kts 345°
2026-04-16 16:45 -3.75724 -60.05763 11925 ft 341 kts 345°
2026-04-16 16:45 -3.73447 -60.06443 11565 ft 339 kts 345°
2026-04-16 16:46 -3.71187 -60.07119 11208 ft 336 kts 345°
2026-04-16 16:46 -3.68942 -60.07792 10849 ft 334 kts 345°
2026-04-16 16:46 -3.66712 -60.08460 10495 ft 332 kts 345°
2026-04-16 16:46 -3.64492 -60.09125 10141 ft 331 kts 345°
2026-04-16 16:47 -3.62282 -60.09787 9787 ft 329 kts 345°
2026-04-16 16:47 -3.60084 -60.10446 9427 ft 328 kts 345°
2026-04-16 16:47 -3.57927 -60.11092 9090 ft 326 kts 345°
2026-04-16 16:47 -3.55751 -60.11743 8848 ft 324 kts 345°
2026-04-16 16:48 -3.53582 -60.12391 8612 ft 323 kts 345°
2026-04-16 16:48 -3.51423 -60.13035 8376 ft 321 kts 345°
2026-04-16 16:48 -3.49274 -60.13677 8139 ft 320 kts 345°
2026-04-16 16:48 -3.47132 -60.14317 7900 ft 319 kts 345°
2026-04-16 16:49 -3.45001 -60.14954 7662 ft 318 kts 345°
2026-04-16 16:49 -3.42875 -60.15590 7427 ft 317 kts 345°
2026-04-16 16:49 -3.40758 -60.16224 7188 ft 316 kts 345°
2026-04-16 16:49 -3.38647 -60.16856 6950 ft 314 kts 345°
2026-04-16 16:50 -3.36546 -60.17484 6707 ft 313 kts 345°
2026-04-16 16:50 -3.34459 -60.18109 6469 ft 310 kts 345°
2026-04-16 16:50 -3.32398 -60.18727 6120 ft 306 kts 345°
2026-04-16 16:50 -3.30351 -60.19339 5651 ft 306 kts 345°
2026-04-16 16:51 -3.28310 -60.19947 5216 ft 303 kts 345°
2026-04-16 16:51 -3.26342 -60.20537 5022 ft 293 kts 345°
2026-04-16 16:51 -3.24401 -60.21058 4839 ft 282 kts 349°
2026-04-16 16:51 -3.22500 -60.21423 4681 ft 271 kts 352°
2026-04-16 16:52 -3.20663 -60.21731 4558 ft 260 kts 352°
2026-04-16 16:52 -3.18899 -60.22024 4436 ft 250 kts 352°
2026-04-16 16:52 -3.17204 -60.22307 4299 ft 241 kts 353°
2026-04-16 16:52 -3.15565 -60.22580 4152 ft 233 kts 353°
2026-04-16 16:53 -3.13973 -60.22795 4008 ft 224 kts 357°
2026-04-16 16:53 -3.12439 -60.22863 3878 ft 215 kts
2026-04-16 16:53 -3.10967 -60.22861 3751 ft 206 kts
2026-04-16 16:53 -3.09554 -60.22857 3620 ft 197 kts
2026-04-16 16:54 -3.08224 -60.22853 3538 ft 186 kts
2026-04-16 16:54 -3.06978 -60.22850 3436 ft 173 kts
2026-04-16 16:54 -3.05799 -60.22847 3276 ft 165 kts
2026-04-16 16:54 -3.04701 -60.22585 3138 ft 162 kts 38°
2026-04-16 16:55 -3.04080 -60.21664 3029 ft 163 kts 71°
2026-04-16 16:55 -3.03883 -60.20546 2908 ft 163 kts 84°
2026-04-16 16:55 -3.03835 -60.19407 2704 ft 163 kts 87°
2026-04-16 16:55 -3.03832 -60.18270 2496 ft 163 kts 89°
2026-04-16 16:56 -3.03838 -60.17139 2286 ft 162 kts 89°
2026-04-16 16:56 -3.03843 -60.16016 2085 ft 162 kts 88°
2026-04-16 16:56 -3.03846 -60.14891 1883 ft 160 kts 88°
2026-04-16 16:56 -3.03849 -60.13824 1685 ft 147 kts 88°
2026-04-16 16:57 -3.03850 -60.12815 1494 ft 144 kts 88°
2026-04-16 16:57 -3.03853 -60.10818 1149 ft 143 kts 88°
2026-04-16 16:57 -3.03855 -60.09823 974 ft 143 kts 89°
2026-04-16 16:58 -3.03858 -60.08829 776 ft 142 kts 89°
2026-04-16 16:58 -3.03864 -60.07841 597 ft 142 kts 89°
2026-04-16 16:58 -3.03858 -60.06853 429 ft 142 kts 89°
2026-04-16 16:58 -3.03860 -60.05881 272 ft 140 kts 90°
2026-04-16 16:59 -3.03861 -60.05030 268 ft 98 kts 90°
2026-04-16 16:59 -3.03863 -60.04510 268 ft 57 kts 90°
2026-04-16 16:59 -3.03863 -60.04140 268 ft 49 kts 90°
2026-04-16 16:59 -3.03864 -60.03856 268 ft 29 kts 89°
2026-04-16 17:00 -3.03737 -60.03782 268 ft 24 kts 330°
2026-04-16 17:00 -3.03667 -60.03925 268 ft 23 kts 284°
2026-04-16 17:00 -3.03626 -60.04080 268 ft 22 kts 284°
2026-04-16 17:00 -3.03578 -60.04229 268 ft 22 kts 297°
2026-04-16 17:01 -3.03473 -60.04342 268 ft 22 kts 328°
2026-04-16 17:01 -3.03352 -60.04390 268 ft 14 kts 329°
2026-04-16 17:01 -3.03343 -60.04486 268 ft 15 kts 259°
2026-04-16 17:01 -3.03353 -60.04568 268 ft 5 kts 279°
2026-04-16 17:02 -3.03313 -60.04579 268 ft 6 kts 357°
2026-04-16 17:02 -3.03279 -60.04581 268 ft 0 kts 357°
2026-04-16 17:02 -3.03277 -60.04581 268 ft 0 kts 357°